EW5040 Weather Reports


Display with metric or nautical units.
time (UTC)temp
F
wind
direction
speed
MPH
gust
MPH
rain 1hr
in
rain 24hr
in
rain mn
in
humidity
%
barometer
mb
20260831014517 66 5 0.0 2.0 0.05 0.15 0.15 96 1019.1
20260831013005 65 5 0.0 2.0 0.01 0.10 0.10 95 1019.1
20260831011506 66 5 0.0 1.0 0.02 0.10 0.10 95 1019.0
20260831010004 66 5 0.0 1.0 0.02 0.10 0.10 95 1018.9
20260831004504 66 5 0.0 1.0 0.03 0.10 0.10 95 1018.7
20260831003006 66 5 0.0 2.0 0.02 0.09 0.09 95 1018.6
20260831001502 66 5 0.0 2.0 0.01 0.08 0.08 94 1018.5
20260831000002 66 5 0.0 1.0 0.02 0.08 0.08 94 1018.4
20260830234501 66 5 0.0 1.0 0.01 0.07 0.07 94 1018.3
20260830233001 67 5 0.0 1.0 0.01 0.07 0.07 93 1018.3
20260830231603 67 5 0.0 1.0 0.02 0.07 0.07 93 1018.2
20260830230100 67 5 0.0 1.0 0.02 0.06 0.06 92 1018.2
20260830224559 67 5 0.0 1.0 0.03 0.06 0.06 92 1018.4
20260830223111 68 5 0.0 0.0 0.04 0.06 0.06 92 1018.4
20260830221558 68 5 0.0 1.0 0.03 0.05 0.05 91 1018.3
20260830220059 68 5 0.0 0.0 0.02 0.04 0.04 91 1018.3
20260830214616 68 5 0.0 0.0 0.01 0.03 0.03 90 1018.4
20260830213056 68 5 0.0 1.0 0.00 0.02 0.02 89 1018.4
20260830211559 68 5 0.0 0.0 0.00 0.02 0.02 89 1018.3
20260830210116 68 5 0.0 1.0 0.00 0.02 0.02 89 1018.3
20260830204600 68 5 0.0 2.0 0.00 0.02 0.02 88 1018.5
20260830203058 68 5 1.0 2.0 0.00 0.02 0.02 87 1018.6
20260830201555 68 5 0.0 2.0 0.00 0.02 0.02 88 1018.5
20260830200053 68 5 0.0 2.0 0.00 0.02 0.02 89 1018.8
20260830194553 68 5 0.0 2.0 0.00 0.02 0.02 88 1018.7
20260830193052 69 5 0.0 3.0 0.00 0.02 0.02 88 1018.9
20260830191553 69 302 0.0 4.0 0.00 0.02 0.02 88 1019.0
20260830190123 69 332 2.0 4.0 0.00 0.02 0.02 88 1018.9
20260830184606 69 330 0.0 3.0 0.00 0.02 0.02 89 1018.8
20260830183100 69 290 1.0 3.0 0.00 0.02 0.02 90 1019.1
20260830181550 69 328 0.0 4.0 0.00 0.02 0.02 91 1019.2
20260830180049 69 311 0.0 1.0 0.00 0.02 0.02 91 1019.4
20260830174603 69 311 0.0 1.0 0.00 0.02 0.02 91 1019.3
20260830173048 69 311 0.0 0.0 0.00 0.02 0.02 90 1019.2
20260830171548 70 316 0.0 1.0 0.00 0.02 0.02 90 1019.1
20260830170047 69 316 0.0 1.0 0.00 0.02 0.02 90 1019.1
20260830164550 69 316 0.0 2.0 0.00 0.02 0.02 90 1019.0
20260830163045 69 316 0.0 2.0 0.00 0.02 0.02 91 1019.0
20260830161549 69 316 0.0 2.0 0.00 0.02 0.02 93 1018.9
20260830160044 68 316 0.0 1.0 0.01 0.02 0.02 93 1019.0
20260830154541 67 316 0.0 2.0 0.02 0.02 0.02 93 1019.3
20260830153037 67 316 0.0 4.0 0.02 0.02 0.02 93 1019.5
20260830151537 67 316 0.0 5.0 0.02 0.02 0.02 92 1019.6
20260830150036 68 338 0.0 4.0 0.01 0.01 0.01 90 1019.4
20260830144534 69 303 1.0 10.0 0.00 0.00 0.00 88 1019.4
20260830143034 69 259 0.0 2.0 0.00 0.00 0.00 90 1019.0
20260830141535 69 223 0.0 2.0 0.00 0.00 0.00 90 1018.7
20260830140032 69 223 0.0 1.0 0.00 0.00 0.00 92 1018.5
20260830134540 68 223 0.0 1.0 0.00 0.00 0.00 92 1018.5
20260830133030 67 223 0.0 0.0 0.00 0.00 0.00 93 1018.5
20260830131528 67 223 0.0 0.0 0.00 0.00 0.00 93 1018.5
20260830130037 67 223 0.0 3.0 0.00 0.00 0.00 92 1018.5
20260830124522 66 174 0.0 1.0 0.00 0.00 0.00 92 1018.2
20260830123021 66 175 0.0 1.0 0.00 0.00 0.00 92 1018.2
20260830121520 66 174 0.0 1.0 0.00 0.00 0.00 91 1018.4
20260830120025 66 174 0.0 0.0 0.00 0.00 0.00 91 1018.5
20260830114517 66 174 0.0 1.0 0.00 0.00 0.00 90 1018.4
20260830113016 66 174 0.0 2.0 0.00 0.00 0.00 89 1018.4
20260830111513 66 174 0.0 3.0 0.00 0.00 0.00 88 1018.3
20260830110013 66 123 0.0 1.0 0.00 0.00 0.00 89 1018.3
20260830104537 66 123 0.0 1.0 0.00 0.00 0.00 87 1018.4
20260830103015 67 123 0.0 1.0 0.00 0.00 0.00 87 1018.4
20260830101513 67 123 0.0 3.0 0.00 0.00 0.00 87 1018.4
20260830100008 67 123 1.0 4.0 0.00 0.00 0.00 86 1018.4
20260830094505 67 149 0.0 3.0 0.00 0.00 0.00 87 1018.3
20260830093004 67 149 0.0 5.0 0.00 0.00 0.00 88 1018.4
20260830091501 66 229 0.0 3.0 0.00 0.00 0.00 91 1018.3
20260830090000 65 218 0.0 3.0 0.00 0.00 0.00 93 1018.3
20260830084600 64 213 1.0 3.0 0.00 0.00 0.00 94 1018.5
20260830083105 64 213 0.0 2.0 0.00 0.00 0.00 94 1018.6
20260830081558 64 213 0.0 1.0 0.00 0.00 0.00 93 1018.9
20260830080055 64 213 0.0 1.0 0.00 0.00 0.00 93 1018.9
20260830074555 64 213 0.0 0.0 0.00 0.00 0.00 93 1019.0
20260830073101 64 213 0.0 0.0 0.00 0.00 0.00 92 1019.0
20260830071553 64 213 0.0 1.0 0.00 0.00 0.00 92 1018.9
20260830070052 64 213 0.0 2.0 0.00 0.00 0.00 91 1019.0
20260830064550 64 213 0.0 1.0 0.00 0.00 0.00 91 1019.1
20260830063105 65 213 0.0 0.0 0.00 0.00 0.00 90 1019.2
20260830061551 65 213 0.0 1.0 0.00 0.00 0.00 90 1019.2
20260830060051 66 213 0.0 1.0 0.00 0.00 0.00 90 1019.3
20260830054546 66 213 0.0 1.0 0.00 0.00 0.00 90 1019.4
20260830053046 66 213 0.0 3.0 0.00 0.00 0.00 90 1019.5
20260830051538 66 213 0.0 3.0 0.00 0.00 0.00 91 1019.4
20260830050034 66 152 0.0 2.0 0.00 0.00 0.00 91 1019.3
20260830044529 66 152 0.0 1.0 0.00 0.00 0.00 90 1019.5
20260830043026 65 152 0.0 1.0 0.00 0.00 0.00 90 1019.4
20260830041525 65 152 0.0 3.0 0.00 0.00 0.00 89 1019.4
20260830040023 65 159 0.0 2.0 0.00 0.00 0.00 89 1019.3
20260830034521 66 159 0.0 1.0 0.00 0.00 0.00 89 1019.2
20260830033021 66 159 0.0 2.0 0.00 0.00 0.00 88 1019.1
20260830031517 66 159 0.0 1.0 0.00 0.00 0.00 88 1019.2
20260830030016 66 159 0.0 2.0 0.00 0.00 0.00 88 1019.2
20260830024513 65 159 1.0 3.0 0.00 0.00 0.00 88 1019.3
20260830023014 65 159 0.0 2.0 0.00 0.00 0.00 89 1019.4
20260830021512 64 155 0.0 2.0 0.00 0.00 0.00 88 1019.4
20260830020011 64 248 0.0 2.0 0.00 0.00 0.00 89 1019.6